Regional Weather Roundup
Issued by NWS New Orleans/Baton Rouge, LA

Home | Current Version | Previous Version | Text Only | Print | Product List | Glossary Off
Versions: 1 2 3 4 5 6 7 8 9 10 11 12 13 14 15 16 17 18 19 20 21 22 23 24 25 26 27 28 29 30 31 32 33 34 35 36 37 38 39 40 41 42 43 44 45 46 47 48 49 50

545
ASUS44 KLIX 170405
RWRLIX
NEW ORLEANS REGIONAL WEATHER ROUNDUP
NATIONAL WEATHER SERVICE NEW ORLEANS LA
1100 PM CDT WED APR 16 2014

NOTE: "FAIR" INDICATES FEW OR NO CLOUDS BELOW 12,000 FEET WITH NO
      SIGNIFICANT WEATHER AND/OR OBSTRUCTIONS TO VISIBILITY.
      SKY/WX - SKY CONDITION AND SIGNIFICANT WEATHER.
      TMP - AIR TEMPERATURE.     DP    - DEWPOINT TEMPERATURE.
      RH  - RELATIVE HUMIDITY.   PRES  - PRESSURE.
      HI  - HEAT INDEX.          WCI   - WIND CHILL INDEX.

*  THESE STATIONS ARE NOT NWS OR FAA STATIONS AND ARE NOT UNDER
   NWS QUALITY CONTROL.

LAZ038-040-048-061>063-065>067-069-170500-
SOUTHEAST LOUISIANA

CITY           SKY/WX    TMP DP  RH WIND       PRES   REMARKS
N.O. AUDUBON   NOT AVBL
N.O. INTL ARPT CLEAR     53  44  71 CALM      30.17S
N.O. LAKEFRONT CLEAR     55  47  74 SE8       30.17S
N.O. DOWNTOWN*   N/A     55  43  62 SE5       30.17S
SLIDELL        CLEAR     46  43  89 CALM      30.16S
BATON ROUGE    CLEAR     50  42  74 E7        30.15R
BOOTHVILLE     CLOUDY    58  49  72 E6        30.16S
BELLE CHASSE   PTCLDY    48  44  86 CALM      30.16S
BOGALUSA*        N/A     49  44  85 CALM      30.18S
GALLIANO*      CLOUDY    59  48  67 E7        30.15F
NEW ROADS*       N/A     53  42  66 SE3       30.15R
GONZALES*        N/A     53  47  80 E6        30.16R
HAMMOND*       CLEAR     50  43  76 CALM      30.18S
HOUMA*           N/A     51  45  79 E6        30.16R HAZE
PORT FOURCHON* CLOUDY    59  48  67 E10       30.16S

$$

MSZ070-080>082-170500-
SOUTHERN MISSISSIPPI

CITY           SKY/WX    TMP DP  RH WIND       PRES   REMARKS
MCCOMB         CLEAR     47  41  80 S5        30.16R
GULFPORT       CLEAR     52  47  83 CALM      30.16S
BILOXI         PTCLDY    54  49  83 E5        30.16F
PASCAGOULA     PTCLDY    47  46  97 CALM      30.18R FOG

$$

COASTAL OBSERVATIONS
LAKE AND NEARSHORE STATIONS

STATION/POSITION TIME  TEMP    WIND        PRES    WAVE
                       AIR SEA DIR/SP/G            HT/PER
                 (UTC) (F)     (DEG/KT/KT) (MB)    (FT/S)
PASCAGOULA       0400   59     120/  5/  7 1021.0
WAVELAND YACHT   0400   59 65  140/ 10/ 11 1020.6
GRAND ISLE       0400   59 67  100/ 11/ 13 1021.2
SOUTHWEST PASS   0400   61 58  110/ 17/ 21 1020.7
NEW CANAL        0400   53 63   CALM  /  2 1021.7
SHELL BEACH      0400   56 62  100/  7/  8 1021.2

OFFSHORE STATIONS

STATION/POSITION TIME  TEMP    WIND        PRES    WAVE
                       AIR SEA DIR/SP/G            HT/PER
                 (UTC) (F)     (DEG/KT/KT) (MB)    (FT/S)
64 S DAUPHIN ISL 0307   63 69  100/ 19/ 25 1020.9

$$




USA.gov is the U.S. government's official web portal to all federal, state and local government web resources and services.